Stations météo

réclame
Mon MeteoGroup
Edinburgh/Gogarbank, Grande-Bretagne (3166): Température de l'air & dewpoint: 18.10.2018 06:00:00 - 24.10.2018 06:00:00 (BST)Edinburgh/Gogarbank, Grande-Bretagne (3166): Température de l'air -20cm & Température de l'air -100cm: 18.10.2018 06:00:00 - 24.10.2018 06:00:00 (BST)Edinburgh/Gogarbank, Grande-Bretagne (3166): Vitesse du vent & gusts: 18.10.2018 06:00:00 - 24.10.2018 06:00:00 (BST)Edinburgh/Gogarbank, Grande-Bretagne (3166): Direction du vent: 18.10.2018 06:00:00 - 24.10.2018 06:00:00 (BST)Edinburgh/Gogarbank, Grande-Bretagne (3166): reduced air pressure: 18.10.2018 06:00:00 - 24.10.2018 06:00:00 (BST)Edinburgh/Gogarbank, Grande-Bretagne (3166): visibility: 18.10.2018 06:00:00 - 24.10.2018 06:00:00 (BST)Edinburgh/Gogarbank, Grande-Bretagne (3166): Ensoleillement: 18.10.2018 06:00:00 - 24.10.2018 06:00:00 (BST)Edinburgh/Gogarbank, Grande-Bretagne (3166): Quantités de précipitations: 18.10.2018 06:00:00 - 24.10.2018 06:00:00 (BST)
Date & Time tt [°C] td [°C] tt -20cm [°C] tt -100cm [°C] ff [km/h] ff [knt] fx [km/h] fx [knt] dd ppp [hPa] vv [km] sd [min] rr [mm]
24.10.2018 06:00:00 11,3 8,8 - - 26 14 50 27 W 1026,1 40 0 0,0
24.10.2018 05:00:00 11,4 9,2 - - 28 15 50 27 W 1025,7 35 0 0,0
24.10.2018 04:00:00 11,5 9,6 - - 28 15 48 26 W 1026,0 35 0 0,0
24.10.2018 03:00:00 11,8 9,7 - - 22 12 48 26 W 1026,0 35 0 0,0
24.10.2018 02:00:00 11,9 9,7 - - 21 11 48 26 W 1026,2 40 0 0,0
24.10.2018 01:00:00 11,9 9,5 - - 29 16 46 25 W 1026,1 40 - 0,0
24.10.2018 00:00:00 12,1 9,8 - - 29 16 54 29 W 1026,2 30 0 0,0
23.10.2018 23:00:00 12,4 10,1 - - 29 16 52 28 W 1026,3 40 0 0,0
23.10.2018 22:00:00 12,4 10,4 - - 34 18 52 28 WSW 1025,2 50 0 0,0
23.10.2018 21:00:00 12,7 10,5 - - 35 19 59 32 WSW 1024,9 50 0 0,0
23.10.2018 20:00:00 12,6 10,5 - - 34 18 59 32 WSW 1024,8 45 0 0,0
23.10.2018 19:00:00 12,6 10,4 - - 41 22 59 32 WSW 1024,2 45 0 0,0
23.10.2018 18:00:00 12,7 10,3 - - 39 21 63 34 WSW 1024,0 45 0 0,0
23.10.2018 17:00:00 13,1 10,1 - - 35 19 67 36 WSW 1023,7 45 0 0,0
23.10.2018 16:00:00 13,4 10,1 - - 35 19 55 30 W 1023,9 50 6 0,0
23.10.2018 15:00:00 13,4 10,4 - - 34 18 57 31 WSW 1024,0 50 30 0,0
23.10.2018 14:00:00 13,5 10,4 - - 41 22 70 38 WSW 1024,0 40 6 0,0
23.10.2018 13:00:00 13,5 10,1 - - 41 22 67 36 W 1023,7 45 24 0,0
23.10.2018 12:00:00 13,2 9,8 - - 39 21 61 33 WSW 1023,7 40 12 0,0
23.10.2018 11:00:00 12,4 9,5 - - 34 18 68 37 WSW 1024,2 35 48 0,0
23.10.2018 10:00:00 11,7 8,8 11,2 11,9 42 23 65 35 WSW 1023,0 35 12 0,0
23.10.2018 09:00:00 11,0 8,4 - - 31 17 70 38 WSW 1024,1 24 0 0,0
23.10.2018 08:00:00 11,1 7,5 - - 35 19 57 31 WSW 1023,5 16 0 0,0
23.10.2018 07:00:00 11,3 7,1 - - 39 21 72 39 WSW 1023,7 16 0 0,0
23.10.2018 06:00:00 11,2 6,8 - - 41 22 72 39 W 1023,5 18 0 0,0
23.10.2018 05:00:00 11,2 7,2 - - 44 24 78 42 W 1024,3 17 0 0,0
23.10.2018 04:00:00 11,1 7,8 - - 46 25 74 40 WSW 1024,6 18 0 0,0
23.10.2018 03:00:00 11,0 7,7 - - 41 22 63 34 WSW 1025,1 17 0 0,0
23.10.2018 02:00:00 11,3 7,1 - - 35 19 76 41 WSW 1025,9 17 0 0,0
23.10.2018 01:00:00 11,3 7,0 - - 44 24 68 37 WSW 1026,5 17 - 0,0
23.10.2018 00:00:00 11,0 6,8 - - 42 23 67 36 WSW 1027,2 17 0 0,0
22.10.2018 23:00:00 11,1 6,7 - - 42 23 68 37 WSW 1027,5 18 0 0,0
22.10.2018 22:00:00 11,1 6,7 - - 42 23 67 36 W 1028,4 18 0 0,0
22.10.2018 21:00:00 10,8 6,1 - - 44 24 78 42 W 1028,5 18 0 0,0
22.10.2018 20:00:00 10,9 6,3 - - 46 25 72 39 W 1028,8 18 0 0,0
22.10.2018 19:00:00 10,8 6,0 - - 39 21 59 32 W 1029,5 20 0 0,0
22.10.2018 18:00:00 10,9 6,2 - - 39 21 67 36 W 1030,5 22 0 0,0
22.10.2018 17:00:00 11,1 7,0 - - 35 19 61 33 WSW 1030,5 20 0 0,0
22.10.2018 16:00:00 10,9 7,4 - - 39 21 68 37 WSW 1031,6 35 42 0,0
22.10.2018 15:00:00 11,7 6,1 - - 37 20 67 36 W 1032,3 28 36 0,0
22.10.2018 14:00:00 11,6 5,7 - - 31 17 55 30 W 1033,0 27 18 0,0
22.10.2018 13:00:00 11,1 5,6 - - 29 16 54 29 WSW 1034,0 23 24 0,0
22.10.2018 12:00:00 10,9 6,1 - - 31 17 48 26 WSW 1033,8 25 48 0,0
22.10.2018 11:00:00 10,3 5,6 - - 24 13 - - WSW 1034,7 22 54 0,0
22.10.2018 10:00:00 8,9 5,6 11,4 11,9 21 11 - - WSW 1035,3 24 24 0,0
22.10.2018 09:00:00 8,3 4,7 - - 24 13 - - WSW 1034,1 23 12 0,0
22.10.2018 08:00:00 7,3 4,2 - - 15 8 - - SW 1034,4 21 0 0,0
22.10.2018 07:00:00 7,2 3,7 - - 21 11 - - SW 1033,8 21 0 0,0
22.10.2018 06:00:00 7,4 3,2 - - 22 12 - - WSW 1033,2 18 0 0,0
22.10.2018 05:00:00 7,0 3,0 - - 22 12 - - WSW 1032,8 18 0 0,0
22.10.2018 04:00:00 6,6 3,3 - - 16 9 - - SW 1032,4 21 0 0,0
22.10.2018 03:00:00 7,1 3,7 - - 16 9 - - WSW 1031,9 23 0 0,0
22.10.2018 02:00:00 7,2 3,8 - - 18 10 - - WSW 1031,2 23 0 0,0
22.10.2018 01:00:00 7,7 4,0 - - 21 11 68 37 WSW 1030,7 21 - 0,0
22.10.2018 00:00:00 7,6 3,8 - - 15 8 - - WSW 1030,5 23 0 0,0
21.10.2018 23:00:00 7,8 3,7 - - 18 10 - - WSW 1029,7 23 0 0,0
21.10.2018 22:00:00 8,3 3,7 - - 28 15 - - WSW 1028,8 23 0 0,0
21.10.2018 21:00:00 8,0 3,5 - - 16 9 - - SW 1028,7 23 0 0,0
21.10.2018 20:00:00 8,6 2,7 - - 18 10 - - WSW 1028,1 25 0 0,0
21.10.2018 19:00:00 9,4 3,8 - - 21 11 - - W 1027,4 24 0 0,0
21.10.2018 18:00:00 10,2 4,4 - - 22 12 - - W 1026,2 26 12 0,0
21.10.2018 17:00:00 11,4 5,4 - - 22 12 54 29 W 1025,1 29 42 0,0
21.10.2018 16:00:00 12,5 6,6 - - 24 13 - - W 1024,0 30 24 0,0
21.10.2018 15:00:00 12,0 8,4 - - 24 13 - - WSW 1023,6 35 24 0,0
21.10.2018 14:00:00 11,7 8,0 - - 24 13 46 25 W 1023,3 40 6 0,0
21.10.2018 13:00:00 11,9 7,8 - - 29 16 - - WSW 1023,1 35 0 0,0
21.10.2018 12:00:00 12,5 10,5 - - 21 11 - - WSW 1022,6 45 0 0,0
21.10.2018 11:00:00 12,7 10,8 - - 22 12 54 29 WSW 1021,8 50 0 0,0
21.10.2018 10:00:00 15,3 13,7 11,5 11,9 16 9 - - SW 1019,7 12 0 0,0
21.10.2018 09:00:00 15,6 13,3 - - 21 11 - - SW 1019,5 9 0 0,0
21.10.2018 08:00:00 15,6 13,0 - - 24 13 - - SW 1019,5 40 0 0,0
21.10.2018 07:00:00 15,7 13,4 - - 24 13 46 25 SW 1019,5 40 0 0,0
21.10.2018 06:00:00 15,1 13,2 - - 15 8 - - SW 1020,1 40 0 0,0
21.10.2018 05:00:00 14,8 12,8 - - 13 7 - - SW 1020,6 40 0 0,0
21.10.2018 04:00:00 15,5 12,8 - - 18 10 - - SW 1021,4 40 0 0,0
21.10.2018 03:00:00 15,1 12,8 - - 21 11 - - SW 1022,0 40 0 0,0
21.10.2018 02:00:00 14,9 13,1 - - 15 8 - - SW 1022,4 40 0 0,0
21.10.2018 01:00:00 15,2 13,0 - - 26 14 - - SW 1022,9 40 - 0,0
21.10.2018 00:00:00 14,9 13,0 - - 15 8 - - WSW 1023,6 23 0 0,0
20.10.2018 23:00:00 14,7 12,7 - - 16 9 - - SW 1024,1 45 0 0,0
20.10.2018 22:00:00 14,7 12,7 - - 16 9 - - SW 1024,2 45 0 0,0
20.10.2018 21:00:00 15,1 12,7 - - 24 13 - - SW 1024,3 45 0 0,0
20.10.2018 20:00:00 15,0 12,8 - - 13 7 - - WSW 1024,7 45 0 0,0
20.10.2018 19:00:00 15,1 13,1 - - 11 6 - - WSW 1024,5 50 0 0,0
20.10.2018 18:00:00 14,9 13,0 - - 13 7 - - WSW 1024,4 50 0 0,0
20.10.2018 17:00:00 15,2 12,9 - - 18 10 - - WSW 1024,0 45 6 0,0
20.10.2018 16:00:00 15,4 12,4 - - 15 8 - - WSW 1024,1 45 6 0,0
20.10.2018 15:00:00 14,8 12,2 - - 22 12 - - WSW 1024,3 45 0 0,0
20.10.2018 14:00:00 14,7 11,8 - - 18 10 - - SW 1024,6 40 0 0,0
20.10.2018 13:00:00 14,9 11,6 - - 24 13 - - WSW 1024,9 45 12 0,0
20.10.2018 12:00:00 13,4 12,5 - - 21 11 - - WSW 1025,1 7 0 0,0
20.10.2018 11:00:00 13,4 11,9 - - 18 10 - - SW 1024,9 18 0 -
20.10.2018 10:00:00 13,5 11,5 11,0 12,0 21 11 - - SW 1024,5 22 0 0,0
20.10.2018 09:00:00 13,7 11,2 - - 21 11 - - SW 1023,6 30 0 0,0
20.10.2018 08:00:00 13,1 11,2 - - 13 7 - - SW 1024,0 35 0 0,0
20.10.2018 07:00:00 12,9 11,2 - - 15 8 - - SW 1024,1 45 0 0,0
20.10.2018 06:00:00 12,6 10,9 - - 16 9 - - SW 1024,0 35 0 0,0
20.10.2018 05:00:00 12,1 10,9 - - 16 9 - - SW 1024,4 40 0 0,0
20.10.2018 04:00:00 8,0 7,6 - - 2 1 - - ENE 1024,9 21 0 0,0
20.10.2018 03:00:00 8,0 7,8 - - 5 3 - - W 1025,0 22 0 0,0
20.10.2018 02:00:00 6,9 6,5 - - 5 3 - - W 1025,3 21 0 0,0
20.10.2018 01:00:00 5,5 4,7 - - 4 2 - - NW 1025,6 15 - 0,0
20.10.2018 00:00:00 6,6 5,9 - - 4 2 - - WSW 1025,9 20 0 0,0
19.10.2018 23:00:00 7,8 6,5 - - 9 5 - - SSW 1025,3 22 0 0,0
19.10.2018 22:00:00 9,3 7,3 - - 9 5 - - SW 1025,3 24 0 0,0
19.10.2018 21:00:00 9,1 7,6 - - 8 4 - - SW 1025,0 23 0 0,0
19.10.2018 20:00:00 8,9 6,9 - - 9 5 - - SSW 1024,3 25 0 0,0
19.10.2018 19:00:00 9,6 7,4 - - 9 5 - - WSW 1023,5 24 0 0,0
19.10.2018 18:00:00 10,5 8,4 - - 13 7 - - SW 1023,0 28 18 0,0
19.10.2018 17:00:00 11,8 9,7 - - 18 10 - - WSW 1021,9 27 12 0,0
19.10.2018 16:00:00 11,3 10,1 - - 18 10 - - WSW 1021,6 28 0 0,0
19.10.2018 15:00:00 10,9 9,7 - - 22 12 - - WSW 1021,4 7 0 0,0
19.10.2018 14:00:00 11,9 9,4 - - 16 9 - - SW 1020,9 45 0 0,0
19.10.2018 13:00:00 11,9 8,9 - - 24 13 46 25 SW 1020,9 30 6 0,0
19.10.2018 12:00:00 11,9 7,8 - - 26 14 48 26 SW 1020,8 30 0 0,0
19.10.2018 11:00:00 11,4 6,4 - - 22 12 46 25 SW 1020,6 30 36 0,0
19.10.2018 10:00:00 10,5 6,1 11,0 12,0 22 12 - - SW 1020,8 29 18 0,0
19.10.2018 09:00:00 9,1 5,5 - - 21 11 - - SW 1020,8 25 0 0,0
19.10.2018 08:00:00 8,8 5,2 - - 18 10 - - SW 1020,7 25 0 0,0
19.10.2018 07:00:00 8,3 5,4 - - 16 9 - - SSW 1020,8 24 0 0,0
19.10.2018 06:00:00 8,1 4,8 - - 11 6 - - S 1021,5 29 0 0,0
19.10.2018 05:00:00 8,0 4,5 - - 13 7 - - SSW 1022,3 30 0 0,0
19.10.2018 04:00:00 8,1 4,6 - - 11 6 - - SW 1022,8 30 0 0,0
19.10.2018 03:00:00 5,1 2,6 - - 4 2 - - W 1023,6 25 0 0,0
19.10.2018 02:00:00 6,8 3,5 - - 11 6 - - SSW 1023,9 29 0 0,0
19.10.2018 01:00:00 4,7 3,1 - - 5 3 - - WSW 1024,8 30 - 0,0
19.10.2018 00:00:00 6,2 3,1 - - 8 4 - - SW 1025,5 30 0 0,0
18.10.2018 23:00:00 6,5 3,4 - - 8 4 - - SW 1025,8 30 0 0,0
18.10.2018 22:00:00 7,4 3,7 - - 8 4 - - SSW 1025,9 30 0 0,0
18.10.2018 21:00:00 8,5 4,0 - - 5 3 - - SSW 1026,2 30 0 0,0
18.10.2018 20:00:00 9,5 4,3 - - 5 3 - - SSW 1026,3 35 0 0,0
18.10.2018 19:00:00 10,1 4,7 - - 8 4 - - S 1026,5 35 0 0,0
18.10.2018 18:00:00 10,5 4,2 - - 4 2 - - S 1026,7 35 0 0,0
18.10.2018 17:00:00 10,8 3,6 - - 8 4 - - S 1026,8 35 24 0,0
18.10.2018 16:00:00 11,2 4,1 - - 9 5 - - SW 1027,2 35 30 0,0
18.10.2018 15:00:00 11,4 4,0 - - 15 8 - - SW 1027,4 40 42 0,0
18.10.2018 14:00:00 11,4 4,3 - - 11 6 - - WSW 1027,9 35 6 0,0
18.10.2018 13:00:00 11,2 6,0 - - 11 6 - - WSW 1028,4 30 42 0,0
18.10.2018 12:00:00 10,7 7,1 - - 13 7 - - W 1028,7 30 36 0,0
18.10.2018 11:00:00 9,1 7,1 - - 9 5 - - W 1029,0 29 0 0,0
18.10.2018 10:00:00 6,5 6,5 11,4 12,2 0 0 - - N 1028,9 22 0 0,0
18.10.2018 09:00:00 4,9 4,9 - - 5 3 - - W 1029,0 19 0 0,0
18.10.2018 08:00:00 3,0 3,0 - - 2 1 - - W 1028,4 20 0 0,0
18.10.2018 07:00:00 2,7 2,7 - - 4 2 - - S 1028,3 19 0 0,0
18.10.2018 06:00:00 1,0 0,9 - - 2 1 - - SSW 1028,1 15 0 0,0

tt = Température de l'air
td = dewpoint
tt -20cm = Température de l'air -20cm
tt -100cm = Température de l'air -100cm
ff = Vitesse du vent
fx = gusts
dd = Direction du vent
ppp = reduced air pressure
vv = visibility
sd = Ensoleillement
rr = Quantités de précipitations

stations d'obs. à proximité